Somerville, NJ

11:09 AM EST on November 12, 2019 (GMT -0500)
Somerset

Weather History for KSMQ - September, 2019

Change the Weather History Date:

Monday, September 2, 2019

  Actual Average Record
Temperature  
Mean Temperature 72 °F -  
Max Temperature 81 °F 80 °F 105 °F (1953)
Min Temperature 63 °F 57 °F 43 °F (1970)
Cooling Degree Days 7    
Growing Degree Days 22 (Base 50)    
Moisture  
Dew Point 68 °F    
Average Humidity 89    
Maximum Humidity 97    
Minimum Humidity 69    
Precipitation  
Precipitation 0.52 in - - ()
Sea Level Pressure  
Sea Level Pressure 30.03 in    
Wind  
Wind Speed 2 mph (SSE)    
Max Wind Speed 8 mph    
Max Gust Speed 18 mph    
Visibility 7 miles    
Events Rain , Thunderstorm    
Averages and records for this station are not official NWS values.
T = Trace of Precipitation, MM = Missing Value Source: NWS Daily Summary

Daily Weather History Graph

Daily Weather History Graph

Search for Another Location

Airport or City:

Astronomy

Sep. 02, 2019 Rise Set
Actual Time 6:26 AM EDT 7:29 PM EDT
Civil Twilight 5:58 AM EDT 7:57 PM EDT
Nautical Twilight 5:25 AM EDT 8:30 PM EDT
Astronomical Twilight 4:50 AM EDT 9:05 PM EDT
Moon 10:06 AM EDT (9/2) 9:48 PM EDT (9/2)
Length of Visible Light 13h 59m
Length of Day
13h 03m
Waxing Crescent, 15% of the Moon is Illuminated
Sep 2
Waxing Crescent
Sep 5
First Quarter
Sep 14
Full
Sep 21
Last Quarter
Sep 28
New

Hourly Weather History & Observations

Time (EDT) Temp. Heat Index Dew Point Humidity Pressure Visibility Wind Dir Wind Speed Gust Speed Precip Events Conditions
12:53 AM 64.0 °F - 62.1 °F 93% 30.19 in 10.0 mi Calm Calm - N/A   Clear
1:53 AM 64.0 °F - 61.0 °F 90% 30.17 in 10.0 mi Calm Calm - N/A   Clear
2:53 AM 63.0 °F - 61.0 °F 93% 30.16 in 9.0 mi Calm Calm - N/A   Clear
3:53 AM 63.0 °F - 61.0 °F 93% 30.13 in 10.0 mi Calm Calm - N/A   Scattered Clouds
4:53 AM 64.0 °F - 62.1 °F 93% 30.12 in 10.0 mi Calm Calm - N/A   Overcast
5:53 AM 64.0 °F - 62.1 °F 93% 30.11 in 10.0 mi Calm Calm - N/A   Overcast
6:42 AM 63.0 °F - 61.0 °F 93% 30.11 in 7.0 mi Calm Calm - N/A   Mostly Cloudy
6:53 AM 63.0 °F - 62.1 °F 97% 30.11 in 7.0 mi Calm Calm - N/A   Overcast
7:39 AM 66.0 °F - 64.0 °F 93% 30.10 in 9.0 mi SSE 3.5 mph - N/A   Overcast
7:53 AM 68.0 °F - 64.0 °F 87% 30.10 in 10.0 mi Calm Calm - N/A   Overcast
8:01 AM 69.1 °F - 64.0 °F 84% 30.10 in 10.0 mi North - - N/A   Overcast
8:53 AM 71.1 °F - 64.9 °F 81% 30.09 in 10.0 mi SSE 5.8 mph - N/A   Overcast
9:53 AM 69.1 °F - 66.0 °F 90% 30.06 in 4.0 mi Calm Calm - 0.01 in Rain Light Rain
9:59 AM 69.1 °F - 66.9 °F 93% 30.07 in 1.8 mi Calm Calm - 0.03 in Rain Heavy Rain
10:51 AM 69.8 °F - 68.0 °F 94% 30.04 in 2.0 mi South 4.6 mph - 0.26 in Rain Rain
10:53 AM 69.1 °F - 68.0 °F 96% 30.04 in 2.5 mi South 5.8 mph - 0.26 in Rain Rain
11:04 AM 70.0 °F - 68.0 °F 93% 30.05 in 3.0 mi South 4.6 mph - 0.01 in Rain Rain
11:09 AM 70.0 °F - 68.0 °F 93% 30.05 in 2.5 mi Variable 4.6 mph - 0.02 in Rain Rain
11:18 AM 70.0 °F - 68.0 °F 93% 30.05 in 1.0 mi South 6.9 mph - 0.11 in Rain Heavy Rain
11:21 AM 70.0 °F - 68.0 °F 93% 30.04 in 0.8 mi SSE 5.8 mph - 0.15 in Rain Heavy Rain
11:28 AM 70.0 °F - 68.0 °F 93% 30.04 in 1.0 mi SSE 8.1 mph - 0.18 in Rain Rain
11:37 AM 70.0 °F - 68.0 °F 93% 30.03 in 3.0 mi South 5.8 mph - 0.19 in Rain Light Rain
11:53 AM 73.0 °F - 70.0 °F 90% 30.02 in 10.0 mi South 8.1 mph - 0.19 in   Overcast
12:33 PM 75.9 °F - 71.1 °F 85% 30.00 in 10.0 mi South 5.8 mph - N/A   Overcast
12:53 PM 75.0 °F - 70.0 °F 84% 30.00 in 10.0 mi Variable 3.5 mph - N/A   Overcast
1:40 PM 78.1 °F - 70.0 °F 76% 29.98 in 10.0 mi Variable 5.8 mph - 0.00 in   Overcast
1:53 PM 73.9 °F - 70.0 °F 87% 29.98 in 8.0 mi NW 6.9 mph 18.4 mph 0.00 in Rain Light Rain
1:55 PM 73.9 °F - 70.0 °F 87% 29.98 in 8.0 mi NW 6.9 mph 18.4 mph 0.00 in Rain , Thunderstorm Light Rain
2:15 PM 72.0 °F - 70.0 °F 93% 29.98 in 1.8 mi North 3.5 mph - 0.06 in Rain , Thunderstorm Heavy Rain
2:24 PM 72.0 °F - 69.1 °F 91% 29.97 in 4.0 mi NE 4.6 mph - 0.06 in Rain , Thunderstorm Light Rain
2:30 PM 73.0 °F - 70.0 °F 90% 29.97 in 10.0 mi Calm Calm - 0.06 in   Overcast
2:53 PM 77.0 °F - 72.0 °F 84% 29.96 in 10.0 mi NNE 3.5 mph - 0.06 in   Mostly Cloudy
3:53 PM 81.0 °F 84.4 °F 70.0 °F 69% 29.94 in 10.0 mi NW 5.8 mph - N/A   Mostly Cloudy
4:53 PM 79.0 °F - 73.0 °F 82% 29.95 in 10.0 mi South 4.6 mph - N/A   Scattered Clouds
5:53 PM 79.0 °F - 70.0 °F 74% 29.93 in 10.0 mi South 3.5 mph - N/A   Clear
6:53 PM 77.0 °F - 71.1 °F 82% 29.93 in 10.0 mi Calm Calm - N/A   Partly Cloudy
7:53 PM 72.0 °F - 70.0 °F 93% 29.94 in 6.0 mi South 3.5 mph - N/A   Partly Cloudy
8:53 PM 73.0 °F - 70.0 °F 90% 29.96 in 8.0 mi SSE 4.6 mph - N/A   Mostly Cloudy
9:53 PM 73.0 °F - 70.0 °F 90% 29.96 in 8.0 mi Calm Calm - N/A   Overcast
10:04 PM 72.0 °F - 70.0 °F 93% 29.97 in 8.0 mi Calm Calm - N/A Thunderstorm Overcast
10:33 PM 72.0 °F - 70.0 °F 93% 29.98 in 8.0 mi NNE 3.5 mph - N/A   Overcast
10:53 PM 71.1 °F - 69.1 °F 93% 29.98 in 7.0 mi Calm Calm - N/A   Mostly Cloudy
11:23 PM 72.0 °F - 70.0 °F 93% 29.98 in 7.0 mi Calm Calm - N/A   Overcast
11:34 PM 72.0 °F - 70.0 °F 93% 29.98 in 7.0 mi NNW 4.6 mph - N/A   Overcast
11:53 PM 71.1 °F - 69.1 °F 93% 29.98 in 6.0 mi NW 3.5 mph - N/A   Partly Cloudy